Change the Weather History Date:

Monday, September 2, 2013

  Actual Average Record
Temperature  
Mean Temperature 58 °F -  
Max Temperature 62 °F 63 °F - ()
Min Temperature 54 °F 49 °F - ()
Degree Days  
Heating Degree Days 7    
Growing Degree Days 8 (Base 50)    
Moisture  
Dew Point 57 °F    
Average Humidity 93    
Maximum Humidity 100    
Minimum Humidity 81    
Precipitation  
Precipitation 0.28 in 0.09 in - ()
Sea Level Pressure  
Sea Level Pressure 30.03 in    
Wind  
Wind Speed 13 mph ()    
Max Wind Speed 21 mph    
Max Gust Speed 30 mph    
Visibility 4.5 miles    
Events Rain    
T = Trace of Precipitation, MM = Missing Value Source: Averaged Metar Reports

Daily Weather History Graph

Daily Weather History Graph

Search for Another Location

Airport or City:

Trip Planner

Search our weather history database for the weather conditions in past years. The results will help you decide how hot, cold, wet, or windy it might be!

Date:

Astronomy

Sep. 02, 2013 Rise Set
Actual Time 6:30 AM CEST 8:07 PM CEST
Civil Twilight 5:53 AM CEST 8:44 PM CEST
Nautical Twilight 5:08 AM CEST 9:29 PM CEST
Astronomical Twilight 4:17 AM CEST 10:19 PM CEST
Moon 3:15 AM CEST (9/2) 6:23 PM CEST (9/2)
Length of Visible Light 14h 50m
Length of Day
13h 36m
Waning Crescent, 9% of the Moon is Illuminated
Sep 2
Waning Crescent
Sep 5
New
Sep 12
First Quarter
Sep 19
Full
Sep 27
Last Quarter

Hourly Weather History & Observations

Time (CEST) Temp. Dew Point Humidity Pressure Visibility Wind Dir Wind Speed Gust Speed Precip Events Conditions
12:00 AM 56 °F 52 °F 81% 30.10 in 12 mi WSW 11.2 mph - - Rain Light Rain Showers
12:20 AM 55.4 °F 51.8 °F 88% 30.09 in 6.2 mi WSW 15.0 mph - N/A   Mostly Cloudy
12:50 AM 55.4 °F 51.8 °F 88% 30.09 in 6.2 mi WSW 11.5 mph - N/A   Mostly Cloudy
1:00 AM 56 °F 52 °F 81% 30.10 in 19 mi WSW 11.2 mph - - Rain Light Rain Showers
1:20 AM 55.4 °F 53.6 °F 94% 30.09 in 6.2 mi WSW 13.8 mph - N/A   Mostly Cloudy
1:50 AM 55.4 °F 53.6 °F 94% 30.06 in 6.2 mi WSW 13.8 mph - N/A Rain Light Rain
2:00 AM 56 °F 52 °F 83% 30.09 in 16 mi WSW 13.4 mph - - Rain Light Rain
2:20 AM 55.4 °F 53.6 °F 94% 30.06 in 5.6 mi WSW 15.0 mph - N/A Rain Light Rain
2:50 AM 55.4 °F 53.6 °F 94% 30.06 in 5.6 mi WSW 12.7 mph - N/A Rain Light Rain
3:00 AM 55 °F 53 °F 90% 30.07 in 6 mi WSW 11.2 mph - - Rain Light Rain
3:20 AM 55.4 °F 53.6 °F 94% 30.04 in 5.0 mi WSW 12.7 mph - N/A Rain Light Rain
3:50 AM 55.4 °F 53.6 °F 94% 30.04 in 5.0 mi WSW 11.5 mph - N/A Rain Light Rain
4:00 AM 55 °F 53 °F 92% 30.05 in 6 mi WSW 11.2 mph - - Rain Light Rain
4:20 AM 55.4 °F 53.6 °F 94% 30.04 in 6.2 mi WSW 13.8 mph - N/A Rain Light Rain
4:50 AM 55.4 °F 53.6 °F 94% 30.04 in 6.2 mi WSW 12.7 mph - N/A   Mostly Cloudy
5:20 AM 55.4 °F 53.6 °F 94% 30.01 in 6.2 mi WSW 13.8 mph - N/A Rain Light Rain
5:50 AM 55.4 °F 53.6 °F 94% 30.01 in 5.0 mi WSW 13.8 mph - N/A Rain Light Rain
6:20 AM 55.4 °F 53.6 °F 94% 30.01 in 6.2 mi WSW 13.8 mph - N/A Rain Light Rain
6:50 AM 55.4 °F 53.6 °F 94% 29.98 in 5.0 mi WSW 16.1 mph - N/A Rain Rain
7:00 AM 56 °F 54 °F 89% 30.00 in 5 mi WSW 15.7 mph - - Rain Light Rain
7:20 AM 55.4 °F 53.6 °F 94% 29.98 in 5.0 mi WSW 12.7 mph - N/A Rain Light Rain
7:50 AM 55.4 °F 53.6 °F 94% 29.98 in 5.0 mi WSW 15.0 mph - N/A Rain Rain
8:00 AM 56 °F 54 °F 90% 30.00 in 4 mi WSW 13.4 mph - - Rain Rain
8:20 AM 55.4 °F 55.4 °F 100% 29.98 in 4.3 mi WSW 13.8 mph - N/A Rain Rain
8:50 AM 57.2 °F 55.4 °F 94% 29.98 in 3.7 mi WSW 15.0 mph - N/A Rain Light Rain
9:00 AM 56 °F 54 °F 92% 29.99 in 4 mi WSW 13.4 mph - - Rain Light Rain
9:20 AM 57.2 °F 55.4 °F 94% 29.98 in 3.1 mi West 13.8 mph - N/A Rain Light Rain
9:50 AM 57.2 °F 55.4 °F 94% 29.98 in 3.7 mi WSW 13.8 mph - N/A Rain Light Rain
10:00 AM 57 °F 55 °F 91% 29.99 in 4 mi WSW 13.4 mph - - Rain Light Rain
10:20 AM 57.2 °F 55.4 °F 94% 29.98 in 3.7 mi WSW 13.8 mph - N/A Rain Light Rain
10:50 AM 57.2 °F 57.2 °F 100% 29.98 in 3.1 mi WSW 15.0 mph - N/A Rain Rain
11:20 AM 59.0 °F 57.2 °F 94% 29.98 in 3.7 mi West 13.8 mph - N/A Rain Rain
11:50 AM 59.0 °F 57.2 °F 94% 29.98 in 3.7 mi West 13.8 mph - N/A Rain Rain
12:00 PM 59 °F 57 °F 92% 29.99 in 4 mi West 13.4 mph - - Rain Light Rain
12:20 PM 59.0 °F 59.0 °F 100% 29.98 in 3.1 mi West 11.5 mph - N/A Rain Light Rain
12:50 PM 60.8 °F 59.0 °F 94% 29.98 in 3.1 mi West 16.1 mph - N/A Rain Light Rain
1:00 PM 61 °F 59 °F 92% 29.99 in 3 mi West 15.7 mph - - Rain Light Rain
1:20 PM 60.8 °F 59.0 °F 94% 29.98 in - West 17.3 mph - N/A Rain Rain
1:50 PM 60.8 °F 59.0 °F 94% 30.01 in - West 15.0 mph - N/A Rain Rain
2:00 PM 61 °F 59 °F 92% 30.01 in 3 mi West 13.4 mph - - Rain Heavy Rain
2:20 PM 62.6 °F 60.8 °F 94% 30.01 in 3.7 mi West 16.1 mph - N/A Rain Rain
2:50 PM 60.8 °F 60.8 °F 100% 30.01 in 3.7 mi West 16.1 mph - N/A Rain Rain
3:00 PM 61 °F 60 °F 93% 30.01 in 4 mi West 15.7 mph - - Rain Light Rain
3:20 PM 60.8 °F 60.8 °F 100% 30.01 in 2.5 mi West 17.3 mph - N/A Rain Light Drizzle
3:50 PM 62.6 °F 60.8 °F 94% 30.01 in 2.8 mi WNW 19.6 mph - N/A Rain Rain
4:00 PM 62 °F 59 °F 88% 30.02 in 3 mi WNW 17.9 mph - - Rain Light Rain
4:20 PM 62.6 °F 60.8 °F 94% 30.01 in 2.8 mi WNW 15.0 mph - N/A Rain Rain
4:50 PM 62.6 °F 60.8 °F 94% 30.01 in 2.8 mi West 18.4 mph 29.9 mph N/A Rain Rain
5:20 PM 62.6 °F 60.8 °F 94% 30.01 in - West 18.4 mph - N/A   Mostly Cloudy
5:50 PM 62.6 °F 60.8 °F 94% 30.01 in 2.5 mi West 17.3 mph 28.8 mph N/A Rain Rain
6:00 PM 62 °F 60 °F 93% 30.02 in 3 mi West 15.7 mph - - Rain Light Rain
6:20 PM 62.6 °F 60.8 °F 94% 30.01 in 3.7 mi West 17.3 mph - N/A Rain Light Rain
6:50 PM 62.6 °F 60.8 °F 94% 30.01 in 3.1 mi West 17.3 mph 28.8 mph N/A Rain Rain
7:00 PM 62 °F 60 °F 93% 30.02 in 3 mi West 15.7 mph - - Rain Light Rain
7:20 PM 62.6 °F 60.8 °F 94% 30.04 in 1.9 mi West 19.6 mph - N/A Rain Rain
7:50 PM 62.6 °F 60.8 °F 94% 30.04 in 1.9 mi West 20.7 mph - N/A Rain Rain
8:00 PM 62 °F 60 °F 93% 30.04 in 2 mi West 20.1 mph - - Rain Light Rain
8:20 PM 62.6 °F 60.8 °F 94% 30.04 in 3.1 mi West 18.4 mph - N/A Rain Light Drizzle
8:50 PM 62.6 °F 60.8 °F 94% 30.06 in 2.5 mi WNW 16.1 mph - N/A Rain Rain
9:00 PM 62 °F 60 °F 92% 30.06 in 2 mi West 15.7 mph - - Rain Light Rain
9:20 PM 62.6 °F 60.8 °F 94% 30.06 in 3.1 mi West 16.1 mph - N/A   Light Drizzle
9:50 PM 62.6 °F 60.8 °F 94% 30.06 in 2.5 mi West 13.8 mph - N/A Rain Rain
10:00 PM 62 °F 60 °F 90% 30.08 in 2 mi West 13.4 mph - - Rain Light Rain
10:20 PM 62.6 °F 60.8 °F 94% 30.06 in 2.8 mi West 13.8 mph - N/A Rain Rain
10:50 PM 62.6 °F 60.8 °F 94% 30.09 in 2.8 mi West 16.1 mph - N/A Rain Rain
11:20 PM 62.6 °F 60.8 °F 94% 30.09 in 2.5 mi West 16.1 mph - N/A Rain Rain
11:50 PM 62.6 °F 60.8 °F 94% 30.09 in 3.1 mi West 15.0 mph - N/A Rain Light Drizzle